Location: Ariel
(45.9570°N, 122.5700°W)
Time: 00:29:14
(UTC-07:00)

Transit 4A - Pass Details

Date: 21 July 2019
Orbit: 864 x 981 km, 66.8° (Epoch: 25 August)

Event Time Altitude Azimuth Distance (km) Brightness Sun altitude
Rises 11:45:00 0° 324° (NW) 3,671 10.7 58.3°
Reaches altitude 10° 11:47:37 10° 321° (NW) 2,709 10.1 58.6°
Maximum altitude 11:53:48 59° 244° (WSW) 1,083 9.1 59.3°
Drops below altitude 10° 11:59:47 10° 166° (SSE) 2,618 10.9 60.0°
Sets 12:02:17 0° 162° (SSE) 3,538 11.3 60.2°
